Saint Bonnet de Bellac- Haute Vienne - France
Donnes mto: jeudi, 18/10/2012
Date Horaire Temp. E. Hum. E. P.atmo. Pluie Vent Direction Direction Ensoleilleme Solaire P. de rose Temp au vent Rafales
18/10/2012 00:00 17,9 C 73 % 1002,9 hPa 0,0 mm 11,5 km/h (2 Bft) S-SO 202 0 min 0 W/m 13,0 C 17,9 C 11,5 km/h (2 Bft)
18/10/2012 00:10 18,1 C 73 % 1002,8 hPa 0,0 mm 13,0 km/h (3 Bft) S 180 0 min 0 W/m 13,2 C 18,1 C 17,3 km/h (3 Bft)
18/10/2012 00:20 18,1 C 73 % 1002,8 hPa 0,0 mm 20,2 km/h (4 Bft) S-SE 157 0 min 0 W/m 13,2 C 18,1 C 31,7 km/h (5 Bft)
18/10/2012 00:30 18,1 C 73 % 1002,6 hPa 0,0 mm 14,8 km/h (3 Bft) S-SE 157 0 min 0 W/m 13,2 C 18,1 C 19,8 km/h (3 Bft)
18/10/2012 00:40 17,9 C 73 % 1002,6 hPa 0,0 mm 13,3 km/h (3 Bft) S-SE 157 0 min 0 W/m 13,0 C 17,9 C 20,5 km/h (4 Bft)
18/10/2012 00:50 17,9 C 74 % 1002,7 hPa 0,0 mm 10,8 km/h (2 Bft) S-SO 202 0 min 0 W/m 13,2 C 17,9 C 21,6 km/h (4 Bft)
18/10/2012 01:00 17,9 C 74 % 1002,7 hPa 0,0 mm 9,7 km/h (2 Bft) S-SO 202 0 min 0 W/m 13,2 C 17,9 C 14,4 km/h (3 Bft)
18/10/2012 01:10 17,8 C 74 % 1002,7 hPa 0,0 mm 7,6 km/h (2 Bft) S 180 0 min 0 W/m 13,1 C 17,8 C 14,4 km/h (3 Bft)
18/10/2012 01:20 17,9 C 74 % 1002,8 hPa 0,0 mm 13,7 km/h (3 Bft) S-SO 202 0 min 0 W/m 13,2 C 17,9 C 14,8 km/h (3 Bft)
18/10/2012 01:30 17,9 C 74 % 1002,8 hPa 0,0 mm 10,8 km/h (2 Bft) SE 135 0 min 0 W/m 13,2 C 17,9 C 18,7 km/h (3 Bft)
18/10/2012 01:40 17,9 C 74 % 1002,8 hPa 0,0 mm 10,8 km/h (2 Bft) SO 225 0 min 0 W/m 13,2 C 17,9 C 21,2 km/h (4 Bft)
18/10/2012 01:50 17,9 C 74 % 1002,8 hPa 0,0 mm 13,7 km/h (3 Bft) S-SO 202 0 min 0 W/m 13,2 C 17,9 C 14,0 km/h (3 Bft)
18/10/2012 02:00 18,1 C 74 % 1002,8 hPa 0,0 mm 19,1 km/h (3 Bft) S-SE 157 0 min 0 W/m 13,4 C 18,1 C 25,6 km/h (4 Bft)
18/10/2012 02:10 18,2 C 73 % 1002,9 hPa 0,0 mm 16,9 km/h (3 Bft) S-SO 202 0 min 0 W/m 13,3 C 18,2 C 22,0 km/h (4 Bft)
18/10/2012 02:20 18,3 C 73 % 1002,8 hPa 0,0 mm 11,9 km/h (2 Bft) SO 225 0 min 0 W/m 13,4 C 18,3 C 21,6 km/h (4 Bft)
18/10/2012 02:30 18,3 C 73 % 1002,8 hPa 0,0 mm 16,9 km/h (3 Bft) O-SO 247 0 min 0 W/m 13,4 C 18,3 C 18,0 km/h (3 Bft)
18/10/2012 02:40 18,4 C 72 % 1002,7 hPa 0,0 mm 14,0 km/h (3 Bft) S-SO 202 0 min 0 W/m 13,3 C 18,4 C 22,0 km/h (4 Bft)
18/10/2012 02:50 18,4 C 72 % 1002,7 hPa 0,0 mm 14,4 km/h (3 Bft) S-SO 202 0 min 0 W/m 13,3 C 18,4 C 21,2 km/h (4 Bft)
18/10/2012 03:02 18,4 C 72 % 1002,8 hPa 0,0 mm 11,9 km/h (2 Bft) S-SO 202 0 min 0 W/m 13,3 C 18,4 C 19,1 km/h (3 Bft)
18/10/2012 03:10 18,5 C 72 % 1002,9 hPa 0,0 mm 19,1 km/h (3 Bft) S-SO 202 0 min 0 W/m 13,4 C 18,5 C 31,0 km/h (5 Bft)
18/10/2012 03:20 18,4 C 72 % 1003,1 hPa 0,0 mm 7,2 km/h (2 Bft) S 180 0 min 0 W/m 13,3 C 18,4 C 7,2 km/h (2 Bft)
18/10/2012 03:30 18,3 C 72 % 1003,0 hPa 0,0 mm 7,6 km/h (2 Bft) O-SO 247 0 min 0 W/m 13,2 C 18,3 C 15,1 km/h (3 Bft)
18/10/2012 03:40 18,3 C 72 % 1002,9 hPa 0,0 mm 10,4 km/h (2 Bft) S-SO 202 0 min 0 W/m 13,2 C 18,3 C 18,7 km/h (3 Bft)
18/10/2012 03:50 18,2 C 72 % 1003,1 hPa 0,0 mm 7,2 km/h (2 Bft) SO 225 0 min 0 W/m 13,1 C 18,2 C 16,2 km/h (3 Bft)
18/10/2012 04:00 18,1 C 73 % 1003,5 hPa 0,0 mm 7,9 km/h (2 Bft) SO 225 0 min 0 W/m 13,2 C 18,1 C 19,8 km/h (3 Bft)
18/10/2012 04:10 18,1 C 73 % 1003,7 hPa 0,0 mm 9,4 km/h (2 Bft) SO 225 0 min 0 W/m 13,2 C 18,1 C 15,1 km/h (3 Bft)
18/10/2012 04:20 18,1 C 73 % 1003,6 hPa 0,0 mm 5,8 km/h (2 Bft) SO 225 0 min 0 W/m 13,2 C 18,1 C 14,0 km/h (3 Bft)
18/10/2012 04:30 17,9 C 74 % 1003,6 hPa 0,0 mm 2,9 km/h (1 Bft) S-SO 202 0 min 0 W/m 13,2 C 17,9 C 6,8 km/h (2 Bft)
18/10/2012 04:40 17,8 C 74 % 1003,5 hPa 0,0 mm 5,0 km/h (1 Bft) S-SO 202 0 min 0 W/m 13,1 C 17,8 C 6,8 km/h (2 Bft)
18/10/2012 04:50 17,8 C 75 % 1003,5 hPa 0,0 mm 1,8 km/h (1 Bft) O-SO 247 0 min 0 W/m 13,3 C 17,8 C 1,8 km/h (1 Bft)
18/10/2012 05:00 17,6 C 75 % 1003,4 hPa 0,0 mm 2,9 km/h (1 Bft) SO 225 0 min 0 W/m 13,1 C 17,6 C 6,8 km/h (2 Bft)
18/10/2012 05:10 17,4 C 76 % 1003,4 hPa 0,0 mm 2,5 km/h (1 Bft) S-SO 202 0 min 0 W/m 13,1 C 17,4 C 3,6 km/h (1 Bft)
18/10/2012 05:20 17,1 C 77 % 1003,4 hPa 0,0 mm 0,0 km/h (0 Bft) S-SO 202 0 min 0 W/m 13,0 C 17,1 C 0,0 km/h (0 Bft)
18/10/2012 05:30 16,8 C 77 % 1003,5 hPa 0,0 mm 0,0 km/h (0 Bft) S-SO 202 0 min 0 W/m 12,7 C 16,8 C 0,0 km/h (0 Bft)
18/10/2012 05:40 16,3 C 78 % 1003,4 hPa 0,0 mm 0,0 km/h (0 Bft) SO 225 0 min 0 W/m 12,5 C 16,3 C 3,6 km/h (1 Bft)
18/10/2012 05:50 16,1 C 80 % 1003,6 hPa 0,0 mm 2,2 km/h (1 Bft) O-SO 247 0 min 0 W/m 12,6 C 16,1 C 4,3 km/h (1 Bft)
18/10/2012 06:00 16,1 C 81 % 1003,7 hPa 0,0 mm 2,9 km/h (1 Bft) SO 225 0 min 0 W/m 12,8 C 16,1 C 3,6 km/h (1 Bft)
18/10/2012 06:10 16,1 C 81 % 1003,7 hPa 0,0 mm 0,4 km/h (0 Bft) SO 225 0 min 0 W/m 12,8 C 16,1 C 3,6 km/h (1 Bft)
18/10/2012 06:20 16,1 C 82 % 1003,7 hPa 0,0 mm 0,0 km/h (0 Bft) SO 225 0 min 0 W/m 13,0 C 16,1 C 1,4 km/h (1 Bft)
18/10/2012 06:30 16,1 C 81 % 1003,7 hPa 0,0 mm 0,0 km/h (0 Bft) SO 225 0 min 0 W/m 12,8 C 16,1 C 0,0 km/h (0 Bft)
18/10/2012 06:40 16,1 C 82 % 1003,6 hPa 0,0 mm 0,0 km/h (0 Bft) SO 225 0 min 0 W/m 13,0 C 16,1 C 0,0 km/h (0 Bft)
18/10/2012 06:50 16,0 C 82 % 1003,6 hPa 0,0 mm 0,0 km/h (0 Bft) S-SO 202 0 min 0 W/m 12,9 C 16,0 C 0,0 km/h (0 Bft)
18/10/2012 07:00 15,9 C 81 % 1003,5 hPa 0,0 mm 0,0 km/h (0 Bft) S-SO 202 0 min 0 W/m 12,6 C 15,9 C 0,0 km/h (0 Bft)
18/10/2012 07:10 15,8 C 81 % 1003,5 hPa 0,0 mm 0,0 km/h (0 Bft) S-SO 202 0 min 0 W/m 12,5 C 15,8 C 0,0 km/h (0 Bft)
18/10/2012 07:20 15,8 C 81 % 1003,5 hPa 0,0 mm 0,0 km/h (0 Bft) S-SO 202 0 min 0 W/m 12,5 C 15,8 C 0,0 km/h (0 Bft)
18/10/2012 07:30 15,5 C 81 % 1003,6 hPa 0,0 mm 0,0 km/h (0 Bft) S-SO 202 0 min 0 W/m 12,3 C 15,5 C 0,0 km/h (0 Bft)
18/10/2012 07:40 15,4 C 82 % 1003,6 hPa 0,0 mm 0,0 km/h (0 Bft) S-SO 202 0 min 0 W/m 12,3 C 15,4 C 0,0 km/h (0 Bft)
18/10/2012 07:50 15,3 C 82 % 1003,5 hPa 0,0 mm 1,4 km/h (1 Bft) S 180 0 min 0 W/m 12,2 C 15,3 C 1,4 km/h (1 Bft)
18/10/2012 08:00 15,2 C 83 % 1003,4 hPa 0,0 mm 1,8 km/h (1 Bft) S 180 0 min 0 W/m 12,3 C 15,2 C 1,8 km/h (1 Bft)
18/10/2012 08:10 15,3 C 83 % 1003,4 hPa 0,0 mm 0,0 km/h (0 Bft) S-SE 157 0 min 0 W/m 12,4 C 15,3 C 0,0 km/h (0 Bft)
18/10/2012 08:20 15,1 C 83 % 1003,3 hPa 0,0 mm 0,0 km/h (0 Bft) SO 225 0 min 0 W/m 12,2 C 15,1 C 0,0 km/h (0 Bft)
18/10/2012 08:30 14,9 C 83 % 1003,4 hPa 0,0 mm 0,0 km/h (0 Bft) SO 225 0 min 0 W/m 12,0 C 14,9 C 0,0 km/h (0 Bft)
18/10/2012 08:40 14,6 C 84 % 1003,5 hPa 0,0 mm 0,0 km/h (0 Bft) SO 225 0 min 0 W/m 11,9 C 14,6 C 0,0 km/h (0 Bft)
18/10/2012 08:50 14,4 C 84 % 1003,5 hPa 0,0 mm 0,0 km/h (0 Bft) SO 225 0 min 0 W/m 11,7 C 14,4 C 0,0 km/h (0 Bft)
18/10/2012 09:00 14,3 C 84 % 1003,5 hPa 0,0 mm 0,0 km/h (0 Bft) SO 225 0 min 0 W/m 11,6 C 14,3 C 0,0 km/h (0 Bft)
18/10/2012 09:10 14,3 C 85 % 1003,7 hPa 0,0 mm 0,0 km/h (0 Bft) SO 225 0 min 0 W/m 11,8 C 14,3 C 0,0 km/h (0 Bft)
18/10/2012 09:20 14,7 C 86 % 1003,9 hPa 0,0 mm 0,0 km/h (0 Bft) SO 225 0 min 0 W/m 12,4 C 14,7 C 0,0 km/h (0 Bft)
18/10/2012 09:30 14,9 C 86 % 1004,0 hPa 0,0 mm 0,0 km/h (0 Bft) SO 225 0 min 0 W/m 12,6 C 14,9 C 0,0 km/h (0 Bft)
18/10/2012 09:40 15,4 C 86 % 1004,1 hPa 0,0 mm 0,0 km/h (0 Bft) O-SO 247 0 min 0 W/m 13,1 C 15,4 C 0,0 km/h (0 Bft)
18/10/2012 09:50 15,8 C 86 % 1004,3 hPa 0,0 mm 0,0 km/h (0 Bft) O-SO 247 0 min 0 W/m 13,5 C 15,8 C 0,0 km/h (0 Bft)
18/10/2012 10:00 16,4 C 85 % 1004,5 hPa 0,0 mm 0,0 km/h (0 Bft) O-SO 247 0 min 0 W/m 13,9 C 16,4 C 0,0 km/h (0 Bft)
18/10/2012 10:10 16,8 C 84 % 1004,5 hPa 0,0 mm 0,0 km/h (0 Bft) O-SO 247 0 min 0 W/m 14,1 C 16,8 C 0,0 km/h (0 Bft)
18/10/2012 10:20 16,9 C 84 % 1004,6 hPa 0,0 mm 0,0 km/h (0 Bft) O-SO 247 0 min 0 W/m 14,2 C 16,9 C 0,0 km/h (0 Bft)
18/10/2012 10:30 17,1 C 83 % 1004,7 hPa 0,0 mm 0,0 km/h (0 Bft) SO 225 0 min 0 W/m 14,2 C 17,1 C 0,0 km/h (0 Bft)
18/10/2012 10:40 17,3 C 83 % 1004,7 hPa 0,0 mm 0,0 km/h (0 Bft) SO 225 0 min 0 W/m 14,4 C 17,3 C 0,0 km/h (0 Bft)
18/10/2012 10:50 17,4 C 83 % 1004,7 hPa 0,0 mm 0,0 km/h (0 Bft) SO 225 0 min 0 W/m 14,5 C 17,4 C 0,0 km/h (0 Bft)
18/10/2012 11:00 17,6 C 83 % 1004,7 hPa 0,0 mm 0,0 km/h (0 Bft) SO 225 0 min 0 W/m 14,7 C 17,6 C 0,0 km/h (0 Bft)
18/10/2012 11:10 17,8 C 82 % 1004,8 hPa 0,0 mm 0,0 km/h (0 Bft) SO 225 0 min 0 W/m 14,7 C 17,8 C 0,0 km/h (0 Bft)
18/10/2012 11:20 18,0 C 82 % 1004,8 hPa 0,0 mm 0,0 km/h (0 Bft) SO 225 0 min 0 W/m 14,9 C 18,0 C 0,0 km/h (0 Bft)
18/10/2012 11:30 18,3 C 82 % 1004,8 hPa 0,0 mm 0,0 km/h (0 Bft) SO 225 0 min 0 W/m 15,2 C 18,3 C 0,0 km/h (0 Bft)
18/10/2012 11:40 18,4 C 82 % 1004,7 hPa 0,0 mm 0,0 km/h (0 Bft) SO 225 0 min 0 W/m 15,3 C 18,4 C 0,0 km/h (0 Bft)
18/10/2012 11:50 18,8 C 82 % 1004,7 hPa 0,0 mm 0,0 km/h (0 Bft) SO 225 0 min 0 W/m 15,7 C 18,8 C 0,0 km/h (0 Bft)
18/10/2012 12:00 19,2 C 80 % 1004,6 hPa 0,0 mm 0,0 km/h (0 Bft) SO 225 0 min 0 W/m 15,7 C 19,2 C 0,0 km/h (0 Bft)
18/10/2012 12:10 19,5 C 80 % 1004,6 hPa 0,0 mm 0,0 km/h (0 Bft) SO 225 0 min 0 W/m 16,0 C 19,5 C 0,0 km/h (0 Bft)
18/10/2012 12:20 19,6 C 80 % 1004,5 hPa 0,0 mm 0,4 km/h (0 Bft) SO 225 0 min 0 W/m 16,1 C 19,6 C 0,4 km/h (0 Bft)
18/10/2012 12:30 20,3 C 79 % 1004,6 hPa 0,0 mm 0,0 km/h (0 Bft) SO 225 0 min 0 W/m 16,5 C 20,3 C 0,0 km/h (0 Bft)
18/10/2012 12:40 20,8 C 78 % 1004,8 hPa 0,0 mm 2,2 km/h (1 Bft) SO 225 0 min 0 W/m 16,8 C 20,8 C 4,3 km/h (1 Bft)
18/10/2012 12:50 21,3 C 76 % 1004,7 hPa 0,0 mm 4,7 km/h (1 Bft) O-SO 247 0 min 0 W/m 16,9 C 21,3 C 6,8 km/h (2 Bft)
18/10/2012 13:00 21,4 C 75 % 1004,7 hPa 0,0 mm 0,0 km/h (0 Bft) SO 225 0 min 0 W/m 16,8 C 21,4 C 0,0 km/h (0 Bft)
18/10/2012 13:10 21,5 C 75 % 1004,7 hPa 0,0 mm 2,5 km/h (1 Bft) S-SE 157 0 min 0 W/m 16,9 C 21,5 C 6,5 km/h (2 Bft)
18/10/2012 13:20 21,9 C 74 % 1004,6 hPa 0,0 mm 2,9 km/h (1 Bft) S 180 0 min 0 W/m 17,0 C 21,9 C 8,3 km/h (2 Bft)
18/10/2012 13:30 22,3 C 73 % 1004,5 hPa 0,0 mm 3,6 km/h (1 Bft) SO 225 0 min 0 W/m 17,2 C 22,3 C 6,5 km/h (2 Bft)
18/10/2012 13:40 22,8 C 72 % 1004,3 hPa 0,0 mm 3,2 km/h (1 Bft) S-SE 157 0 min 0 W/m 17,5 C 22,8 C 6,1 km/h (2 Bft)
18/10/2012 13:50 23,2 C 70 % 1004,2 hPa 0,0 mm 6,1 km/h (2 Bft) S-SO 202 0 min 0 W/m 17,4 C 23,2 C 10,1 km/h (2 Bft)
18/10/2012 14:00 23,4 C 68 % 1004,2 hPa 0,0 mm 7,9 km/h (2 Bft) S 180 0 min 0 W/m 17,1 C 23,4 C 10,8 km/h (2 Bft)
18/10/2012 14:10 23,5 C 68 % 1004,0 hPa 0,0 mm 7,9 km/h (2 Bft) N 360 0 min 0 W/m 17,2 C 23,5 C 7,9 km/h (2 Bft)
18/10/2012 14:20 23,6 C 66 % 1004,0 hPa 0,0 mm 7,2 km/h (2 Bft) S 180 0 min 0 W/m 16,9 C 23,6 C 14,4 km/h (3 Bft)
18/10/2012 14:30 23,6 C 66 % 1003,8 hPa 0,0 mm 8,6 km/h (2 Bft) SO 225 0 min 0 W/m 16,9 C 23,6 C 13,0 km/h (3 Bft)
18/10/2012 14:40 23,6 C 66 % 1003,8 hPa 0,0 mm 5,8 km/h (2 Bft) S-SE 157 0 min 0 W/m 16,9 C 23,6 C 5,8 km/h (2 Bft)
18/10/2012 14:50 23,6 C 66 % 1003,9 hPa 0,0 mm 9,4 km/h (2 Bft) SO 225 0 min 0 W/m 16,9 C 23,6 C 13,3 km/h (3 Bft)
18/10/2012 15:00 23,8 C 66 % 1003,8 hPa 0,0 mm 8,6 km/h (2 Bft) S-SO 202 0 min 0 W/m 17,1 C 23,8 C 16,6 km/h (3 Bft)
18/10/2012 15:10 23,6 C 66 % 1003,8 hPa 0,0 mm 10,8 km/h (2 Bft) SO 225 0 min 0 W/m 16,9 C 23,6 C 13,3 km/h (3 Bft)
18/10/2012 15:20 23,3 C 65 % 1003,7 hPa 0,0 mm 11,9 km/h (2 Bft) S-SE 157 0 min 0 W/m 16,3 C 23,3 C 17,3 km/h (3 Bft)
18/10/2012 15:30 23,1 C 66 % 1003,8 hPa 0,0 mm 15,1 km/h (3 Bft) S-SO 202 0 min 0 W/m 16,4 C 23,1 C 24,5 km/h (4 Bft)
18/10/2012 15:40 23,1 C 66 % 1003,9 hPa 0,0 mm 13,7 km/h (3 Bft) S-SE 157 0 min 0 W/m 16,4 C 23,1 C 19,4 km/h (3 Bft)
18/10/2012 15:50 23,2 C 65 % 1003,9 hPa 0,0 mm 14,4 km/h (3 Bft) S 180 0 min 0 W/m 16,2 C 23,2 C 27,0 km/h (5 Bft)
18/10/2012 16:00 23,3 C 66 % 1003,8 hPa 0,0 mm 6,1 km/h (2 Bft) S-SO 202 0 min 0 W/m 16,6 C 23,3 C 8,6 km/h (2 Bft)
18/10/2012 16:10 23,4 C 65 % 1003,9 hPa 0,0 mm 15,1 km/h (3 Bft) S-SO 202 0 min 0 W/m 16,4 C 23,4 C 23,4 km/h (4 Bft)
18/10/2012 16:20 23,2 C 65 % 1003,8 hPa 0,0 mm 13,3 km/h (3 Bft) S 180 0 min 0 W/m 16,2 C 23,2 C 19,4 km/h (3 Bft)
18/10/2012 16:30 22,9 C 64 % 1004,2 hPa 0,0 mm 15,8 km/h (3 Bft) E-SE 112 0 min 0 W/m 15,7 C 22,9 C 28,4 km/h (5 Bft)
18/10/2012 16:40 22,7 C 66 % 1004,0 hPa 0,0 mm 10,4 km/h (2 Bft) E-SE 112 0 min 0 W/m 16,0 C 22,7 C 10,4 km/h (2 Bft)
18/10/2012 16:50 22,4 C 66 % 1003,9 hPa 0,0 mm 12,6 km/h (3 Bft) S-SE 157 0 min 0 W/m 15,7 C 22,4 C 14,0 km/h (3 Bft)
18/10/2012 17:00 22,3 C 65 % 1003,9 hPa 0,0 mm 20,9 km/h (4 Bft) S-SO 202 0 min 0 W/m 15,4 C 22,3 C 20,9 km/h (4 Bft)
18/10/2012 17:10 21,9 C 65 % 1003,6 hPa 0,0 mm 18,0 km/h (3 Bft) S 180 0 min 0 W/m 15,0 C 21,9 C 22,0 km/h (4 Bft)
18/10/2012 17:20 21,7 C 66 % 1003,4 hPa 0,0 mm 10,8 km/h (2 Bft) S-SE 157 0 min 0 W/m 15,1 C 21,7 C 15,1 km/h (3 Bft)
18/10/2012 17:30 21,4 C 67 % 1003,3 hPa 0,0 mm 18,0 km/h (3 Bft) S-SE 157 0 min 0 W/m 15,0 C 21,4 C 18,0 km/h (3 Bft)
18/10/2012 17:40 21,3 C 67 % 1003,1 hPa 0,0 mm 9,7 km/h (2 Bft) S-SO 202 0 min 0 W/m 14,9 C 21,3 C 11,9 km/h (2 Bft)
18/10/2012 17:50 21,2 C 66 % 1003,1 hPa 0,0 mm 28,4 km/h (5 Bft) SE 135 0 min 0 W/m 14,6 C 21,2 C 43,9 km/h (6 Bft)
18/10/2012 18:00 20,9 C 67 % 1003,1 hPa 0,0 mm 11,5 km/h (2 Bft) O-SO 247 0 min 0 W/m 14,5 C 20,9 C 24,5 km/h (4 Bft)
18/10/2012 18:10 20,7 C 68 % 1003,1 hPa 0,0 mm 8,6 km/h (2 Bft) S-SE 157 0 min 0 W/m 14,6 C 20,7 C 12,6 km/h (3 Bft)
18/10/2012 18:20 20,4 C 68 % 1003,1 hPa 0,0 mm 13,0 km/h (3 Bft) S-SE 157 0 min 0 W/m 14,3 C 20,4 C 13,3 km/h (3 Bft)
18/10/2012 18:30 20,2 C 68 % 1003,2 hPa 0,0 mm 14,0 km/h (3 Bft) S 180 0 min 0 W/m 14,1 C 20,2 C 25,9 km/h (4 Bft)
18/10/2012 18:40 20,1 C 68 % 1003,3 hPa 0,0 mm 9,7 km/h (2 Bft) S 180 0 min 0 W/m 14,0 C 20,1 C 15,5 km/h (3 Bft)
18/10/2012 18:50 19,8 C 69 % 1003,6 hPa 0,0 mm 3,6 km/h (1 Bft) S 180 0 min 0 W/m 13,9 C 19,8 C 4,3 km/h (1 Bft)
18/10/2012 19:00 19,7 C 70 % 1003,8 hPa 0,0 mm 2,9 km/h (1 Bft) S 180 0 min 0 W/m 14,1 C 19,7 C 4,3 km/h (1 Bft)
18/10/2012 19:10 19,5 C 70 % 1003,8 hPa 0,0 mm 5,0 km/h (1 Bft) SE 135 0 min 0 W/m 13,9 C 19,5 C 9,0 km/h (2 Bft)
18/10/2012 19:20 19,3 C 70 % 1004,0 hPa 0,0 mm 3,6 km/h (1 Bft) S 180 0 min 0 W/m 13,7 C 19,3 C 8,3 km/h (2 Bft)
18/10/2012 19:30 19,3 C 70 % 1004,1 hPa 0,0 mm 2,2 km/h (1 Bft) SO 225 0 min 0 W/m 13,7 C 19,3 C 2,9 km/h (1 Bft)
18/10/2012 19:40 19,1 C 71 % 1004,4 hPa 0,0 mm 3,2 km/h (1 Bft) S-SO 202 0 min 0 W/m 13,7 C 19,1 C 6,5 km/h (2 Bft)
18/10/2012 19:50 19,1 C 71 % 1004,7 hPa 0,0 mm 4,0 km/h (1 Bft) SO 225 0 min 0 W/m 13,7 C 19,1 C 7,2 km/h (2 Bft)
18/10/2012 20:00 18,9 C 71 % 1004,6 hPa 0,0 mm 9,0 km/h (2 Bft) S-SO 202 0 min 0 W/m 13,5 C 18,9 C 10,4 km/h (2 Bft)
18/10/2012 20:10 18,9 C 71 % 1004,5 hPa 0,0 mm 7,9 km/h (2 Bft) S 180 0 min 0 W/m 13,5 C 18,9 C 8,6 km/h (2 Bft)
18/10/2012 20:20 18,8 C 71 % 1004,5 hPa 0,0 mm 7,2 km/h (2 Bft) SO 225 0 min 0 W/m 13,4 C 18,8 C 11,9 km/h (2 Bft)
18/10/2012 20:30 18,6 C 72 % 1004,5 hPa 0,0 mm 0,0 km/h (0 Bft) S-SO 202 0 min 0 W/m 13,4 C 18,6 C 0,0 km/h (0 Bft)
18/10/2012 20:40 18,5 C 72 % 1004,5 hPa 0,0 mm 4,3 km/h (1 Bft) S-SO 202 0 min 0 W/m 13,4 C 18,5 C 6,8 km/h (2 Bft)
18/10/2012 20:50 18,4 C 72 % 1004,2 hPa 0,0 mm 6,1 km/h (2 Bft) S 180 0 min 0 W/m 13,3 C 18,4 C 8,3 km/h (2 Bft)
18/10/2012 21:00 18,4 C 72 % 1004,3 hPa 0,0 mm 5,8 km/h (2 Bft) S 180 0 min 0 W/m 13,3 C 18,4 C 13,0 km/h (3 Bft)
18/10/2012 21:10 18,3 C 71 % 1004,4 hPa 0,0 mm 4,3 km/h (1 Bft) S-SO 202 0 min 0 W/m 12,9 C 18,3 C 7,9 km/h (2 Bft)
18/10/2012 21:20 18,2 C 72 % 1004,1 hPa 0,0 mm 4,0 km/h (1 Bft) S 180 0 min 0 W/m 13,1 C 18,2 C 4,0 km/h (1 Bft)
18/10/2012 21:30 18,0 C 72 % 1004,0 hPa 0,0 mm 4,0 km/h (1 Bft) S 180 0 min 0 W/m 12,9 C 18,0 C 7,2 km/h (2 Bft)
18/10/2012 21:40 18,0 C 72 % 1003,9 hPa 0,0 mm 2,2 km/h (1 Bft) S 180 0 min 0 W/m 12,9 C 18,0 C 4,3 km/h (1 Bft)
18/10/2012 21:50 17,9 C 71 % 1003,7 hPa 0,0 mm 6,8 km/h (2 Bft) S 180 0 min 0 W/m 12,6 C 17,9 C 9,4 km/h (2 Bft)
18/10/2012 22:00 17,9 C 71 % 1003,6 hPa 0,0 mm 4,0 km/h (1 Bft) S-SE 157 0 min 0 W/m 12,6 C 17,9 C 8,6 km/h (2 Bft)
18/10/2012 22:10 17,9 C 71 % 1003,8 hPa 0,0 mm 5,8 km/h (2 Bft) S-SE 157 0 min 0 W/m 12,6 C 17,9 C 5,8 km/h (2 Bft)
18/10/2012 22:20 17,8 C 71 % 1003,9 hPa 0,0 mm 5,4 km/h (2 Bft) O-SO 247 0 min 0 W/m 12,5 C 17,8 C 8,6 km/h (2 Bft)
18/10/2012 22:30 17,8 C 71 % 1004,2 hPa 0,0 mm 0,0 km/h (0 Bft) S 180 0 min 0 W/m 12,5 C 17,8 C 0,0 km/h (0 Bft)
18/10/2012 22:40 17,8 C 71 % 1004,3 hPa 0,0 mm 5,4 km/h (2 Bft) S-SO 202 0 min 0 W/m 12,5 C 17,8 C 10,1 km/h (2 Bft)
18/10/2012 22:50 17,9 C 71 % 1004,3 hPa 0,0 mm 4,7 km/h (1 Bft) S 180 0 min 0 W/m 12,6 C 17,9 C 8,3 km/h (2 Bft)
18/10/2012 23:00 17,9 C 71 % 1004,3 hPa 0,0 mm 5,4 km/h (2 Bft) S-SE 157 0 min 0 W/m 12,6 C 17,9 C 10,1 km/h (2 Bft)
18/10/2012 23:10 18,1 C 71 % 1004,2 hPa 0,0 mm 4,0 km/h (1 Bft) S 180 0 min 0 W/m 12,8 C 18,1 C 7,9 km/h (2 Bft)
18/10/2012 23:20 18,2 C 71 % 1004,3 hPa 0,0 mm 3,6 km/h (1 Bft) S-SE 157 0 min 0 W/m 12,9 C 18,2 C 6,1 km/h (2 Bft)
18/10/2012 23:30 18,3 C 71 % 1004,6 hPa 0,0 mm 4,3 km/h (1 Bft) S-SE 157 0 min 0 W/m 12,9 C 18,3 C 10,4 km/h (2 Bft)
18/10/2012 23:40 18,5 C 71 % 1004,7 hPa 0,0 mm 7,2 km/h (2 Bft) SO 225 0 min 0 W/m 13,1 C 18,5 C 7,2 km/h (2 Bft)
18/10/2012 23:50 18,6 C 70 % 1004,9 hPa 0,0 mm 6,8 km/h (2 Bft) S 180 0 min 0 W/m 13,0 C 18,6 C 10,4 km/h (2 Bft)
_ Min-Heure 09:10 16:30 00:40 - 22:30 - - - - 09:00 09:10 22:30
Minimum _ 14,3 C 64 % 1002,6 hPa - 0,0 km/h (0 Bft) - - - - 11,6 C 14,3 C 0,0 km/h (0 Bft)
_ Max-Heure 15:00 09:50 23:50 23:50 17:50 - - 23:50 23:50 13:40 15:00 17:50
Maximum _ 23,8 C 86 % 1004,9 hPa 0,0 mm 28,4 km/h
SE (5 Bft)
- - 0 min 0 W/m 17,5 C 23,8 C 43,9 km/h
SE (6 Bft)
Moyenne _ 18,8 C 74 % 1003,8 hPa #0,0 mm 6,1 km/h (2 Bft) SO - #0 min. 0 W/m 14,0 C 18,8 C 9,3 km/h (2 Bft)
Saint Bonnet de Bellac- Haute Vienne - France